DW0937 Weather Reports


Display with metric or nautical units.
time (UTC)temp
F
wind
direction
speed
MPH
gust
MPH
rain 1hr
in
rain 24hr
in
rain mn
in
humidity
%
barometer
mb
20260507024804 39 258 0.0 0.0 0.00 0.00 0.00 57 1014.0
20260507024303 40 258 0.0 0.0 0.00 0.00 0.00 57 1014.0
20260507023804 40 258 0.0 0.0 0.00 0.00 0.00 56 1014.0
20260507023531 40 258 0.0 0.0 0.00 0.00 0.00 56 1014.0
20260507022803 40 258 0.0 0.0 0.00 0.00 0.00 55 1014.0
20260507022528 41 258 0.0 0.0 0.00 0.00 0.00 55 1014.1
20260507021804 41 258 0.0 0.0 0.00 0.00 0.00 54 1014.1
20260507021302 41 258 0.0 0.0 0.00 0.00 0.00 54 1014.1
20260507021028 41 257 0.0 1.0 0.00 0.00 0.00 53 1014.0
20260507020301 42 257 0.0 1.0 0.00 0.00 0.00 52 1014.1
20260507015800 42 258 0.0 1.0 0.00 0.00 0.00 52 1014.0
20260507015258 42 258 0.0 2.0 0.00 0.00 0.00 51 1014.0
20260507014759 42 258 0.0 2.0 0.00 0.00 0.00 51 1014.0
20260507014257 43 258 0.0 3.0 0.00 0.00 0.00 50 1013.9
20260507014235 43 258 0.0 3.0 0.00 0.00 0.00 50 1013.9
20260507013252 43 294 0.0 3.0 0.00 0.00 0.00 50 1013.9
20260507012751 43 274 0.0 2.0 0.00 0.00 0.00 50 1014.0
20260507012251 44 275 0.0 3.0 0.00 0.00 0.00 49 1013.9
20260507011805 44 277 0.0 5.0 0.00 0.00 0.00 48 1013.9
20260507011251 44 234 0.0 5.0 0.00 0.00 0.00 48 1013.9
20260507011238 44 277 0.0 3.0 0.00 0.00 0.00 47 1013.9
20260507010505 45 252 1.0 5.0 0.00 0.00 0.00 47 1013.9
20260507010008 45 248 1.0 5.0 0.00 0.00 0.00 47 1014.0
20260507004742 45 299 0.0 3.0 0.00 0.00 0.00 47 1014.0
20260507004241 45 265 0.0 4.0 0.00 0.00 0.00 48 1014.0
20260507004000 45 259 0.0 4.0 0.00 0.00 0.00 47 1014.0
20260507003239 45 254 0.0 6.0 0.00 0.00 0.00 47 1014.0
20260507002739 45 226 1.0 6.0 0.00 0.00 0.00 47 1014.0
20260507002239 45 290 0.0 4.0 0.00 0.00 0.00 47 1014.1
20260507001739 45 277 0.0 3.0 0.00 0.00 0.00 47 1014.1
20260507001237 45 234 0.0 3.0 0.00 0.00 0.00 47 1014.1
20260507000737 45 308 0.0 4.0 0.00 0.00 0.00 47 1014.1
20260507000236 45 307 0.0 4.0 0.00 0.00 0.00 46 1014.2
20260506235733 45 291 0.0 4.0 0.00 0.00 0.00 46 1014.2
20260506235235 45 295 0.0 3.0 0.00 0.00 0.00 46 1014.1
20260506234734 45 251 0.0 5.0 0.00 0.00 0.00 46 1014.2
20260506234234 45 291 1.0 5.0 0.00 0.00 0.00 46 1014.2
20260506233735 46 302 1.0 5.0 0.00 0.00 0.00 46 1014.3
20260506233232 46 297 1.0 5.0 0.00 0.00 0.00 46 1014.3
20260506232731 46 301 0.0 4.0 0.00 0.00 0.00 46 1014.3
20260506232244 46 278 0.0 5.0 0.00 0.00 0.00 46 1014.3
20260506231730 46 223 1.0 9.0 0.00 0.00 0.00 46 1014.4
20260506231231 46 277 0.0 9.0 0.00 0.00 0.00 45 1014.4
20260506230730 46 281 0.0 4.0 0.00 0.00 0.00 47 1014.3
20260506230228 46 316 1.0 6.0 0.00 0.00 0.00 46 1014.3
20260506225729 46 13 1.0 6.0 0.00 0.00 0.00 46 1014.3
20260506225227 46 310 0.0 3.0 0.00 0.00 0.00 46 1014.4
20260506224727 47 307 0.0 3.0 0.00 0.00 0.00 46 1014.4
20260506224224 46 232 0.0 3.0 0.00 0.00 0.00 47 1014.4
20260506223722 46 307 1.0 3.0 0.00 0.00 0.00 46 1014.4
20260506223220 46 299 1.0 5.0 0.00 0.00 0.00 46 1014.4
20260506222722 46 307 1.0 5.0 0.00 0.00 0.00 46 1014.4
20260506222233 46 335 1.0 3.0 0.00 0.00 0.00 45 1014.4
20260506221719 46 299 0.0 3.0 0.00 0.00 0.00 48 1014.5
20260506221218 46 290 0.0 3.0 0.00 0.00 0.00 46 1014.5
20260506220718 46 296 1.0 5.0 0.00 0.00 0.00 46 1014.6
20260506220658 46 34 1.0 5.0 0.00 0.00 0.00 47 1014.6
20260506215719 46 297 1.0 7.0 0.00 0.00 0.00 46 1014.6
20260506215218 46 262 1.0 8.0 0.00 0.00 0.00 46 1014.7
20260506214720 46 219 1.0 8.0 0.00 0.00 0.00 46 1014.7
20260506214220 46 226 1.0 7.0 0.00 0.00 0.00 46 1014.7
20260506213719 46 290 1.0 9.0 0.00 0.00 0.00 47 1014.7
20260506213218 46 260 1.0 9.0 0.00 0.00 0.00 47 1014.8
20260506212712 46 247 1.0 7.0 0.00 0.00 0.00 47 1014.8
20260506212208 46 280 1.0 6.0 0.00 0.00 0.00 47 1014.8
20260506211709 46 316 1.0 7.0 0.00 0.00 0.00 47 1014.8
20260506211211 45 281 1.0 7.0 0.00 0.00 0.00 48 1014.8
20260506210709 45 11 0.0 4.0 0.00 0.00 0.00 48 1014.9
20260506210210 45 213 1.0 10.0 0.00 0.00 0.00 47 1015.0
20260506205709 45 249 1.0 10.0 0.00 0.00 0.00 49 1015.0
20260506205208 45 275 1.0 6.0 0.00 0.00 0.00 48 1015.1
20260506204707 45 321 1.0 6.0 0.00 0.00 0.00 48 1015.1
20260506204430 46 251 2.0 9.0 0.00 0.00 0.00 48 1015.1
20260506203708 45 295 2.0 9.0 0.00 0.00 0.00 48 1015.1
20260506203208 45 267 1.0 9.0 0.00 0.00 0.00 48 1015.1
20260506202945 45 259 1.0 9.0 0.00 0.00 0.00 48 1015.1
20260506202437 46 224 1.0 13.0 0.00 0.00 0.00 47 1015.2
20260506201708 46 300 1.0 13.0 0.00 0.00 0.00 48 1015.2
20260506201205 45 240 1.0 5.0 0.00 0.00 0.00 49 1015.0
20260506200659 45 311 1.0 6.0 0.00 0.00 0.00 48 1015.2
20260506200157 45 304 1.0 6.0 0.00 0.00 0.00 48 1015.0
20260506195656 45 322 1.0 7.0 0.00 0.00 0.00 49 1015.2
20260506195412 45 313 1.0 7.0 0.00 0.00 0.00 48 1015.2
20260506194653 45 325 1.0 6.0 0.00 0.00 0.00 48 1015.2
20260506194155 45 291 1.0 10.0 0.00 0.00 0.00 48 1015.2
20260506193656 44 238 1.0 10.0 0.00 0.00 0.00 49 1015.2
20260506193155 44 312 1.0 5.0 0.00 0.00 0.00 48 1015.3
20260506192654 44 294 0.0 4.0 0.00 0.00 0.00 49 1015.3
20260506192151 44 355 1.0 9.0 0.00 0.00 0.00 49 1015.3
20260506191650 44 277 2.0 9.0 0.00 0.00 0.00 48 1015.3
20260506191150 44 300 1.0 6.0 0.00 0.00 0.00 48 1015.2
20260506191132 45 307 1.0 5.0 0.00 0.00 0.00 47 1015.3
20260506190147 45 288 1.0 8.0 0.00 0.00 0.00 48 1015.2
20260506185648 45 303 1.0 8.0 0.00 0.00 0.00 48 1015.3
20260506185146 44 249 1.0 5.0 0.00 0.00 0.00 49 1015.2
20260506184644 44 265 1.0 5.0 0.00 0.00 0.00 49 1015.4
20260506184138 44 259 1.0 5.0 0.00 0.00 0.00 51 1015.3
20260506183638 44 300 1.0 10.0 0.00 0.00 0.00 49 1015.3
20260506183138 44 298 1.0 10.0 0.00 0.00 0.00 48 1015.4
20260506182640 44 269 1.0 7.0 0.00 0.00 0.00 49 1015.3
20260506182137 44 344 1.0 6.0 0.00 0.00 0.00 50 1015.3
20260506181636 44 311 2.0 6.0 0.00 0.00 0.00 48 1015.4
20260506181136 44 313 2.0 6.0 0.00 0.00 0.00 48 1015.4
20260506180636 44 306 1.0 5.0 0.00 0.00 0.00 50 1015.4
20260506180137 43 351 1.0 10.0 0.00 0.00 0.00 50 1015.4
20260506175635 43 355 1.0 10.0 0.00 0.00 0.00 50 1015.4
20260506175135 43 305 1.0 9.0 0.00 0.00 0.00 50 1015.5
20260506174634 44 271 2.0 9.0 0.00 0.00 0.00 49 1015.4
20260506174352 44 292 1.0 6.0 0.00 0.00 0.00 49 1015.5
20260506173635 43 306 1.0 5.0 0.00 0.00 0.00 50 1015.5
20260506173134 43 321 1.0 6.0 0.00 0.00 0.00 51 1015.6
20260506172631 42 294 2.0 6.0 0.00 0.00 0.00 51 1015.6
20260506172619 42 328 2.0 9.0 0.00 0.00 0.00 50 1015.6
20260506171630 43 308 2.0 9.0 0.00 0.00 0.00 49 1015.6
20260506171129 43 269 1.0 7.0 0.00 0.00 0.00 49 1015.6
20260506170629 43 269 2.0 7.0 0.00 0.00 0.00 51 1015.7
20260506170354 42 325 2.0 9.0 0.00 0.00 0.00 51 1015.7
20260506165627 43 233 2.0 9.0 0.00 0.00 0.00 50 1015.8
20260506165127 42 319 2.0 6.0 0.00 0.00 0.00 50 1015.8
20260506164629 42 316 2.0 6.0 0.00 0.00 0.00 50 1015.8
20260506164128 42 321 2.0 11.0 0.00 0.00 0.00 50 1015.8
20260506163628 42 294 3.0 11.0 0.00 0.00 0.00 51 1015.7
20260506163127 42 286 2.0 8.0 0.00 0.00 0.00 51 1015.8
20260506162627 42 11 2.0 6.0 0.00 0.00 0.00 50 1015.7
20260506162137 42 305 2.0 6.0 0.00 0.00 0.00 50 1015.7
20260506161636 42 318 1.0 6.0 0.00 0.00 0.00 51 1015.6
20260506161404 42 300 1.0 7.0 0.00 0.00 0.00 51 1015.7
20260506160636 41 321 2.0 7.0 0.00 0.00 0.00 51 1015.7
20260506160137 41 305 2.0 7.0 0.00 0.00 0.00 51 1015.7
20260506155637 41 311 3.0 9.0 0.00 0.00 0.00 51 1015.6
20260506155124 41 307 3.0 9.0 0.00 0.00 0.00 51 1015.6
20260506154626 41 304 3.0 8.0 0.00 0.00 0.00 50 1015.7
20260506154124 41 286 2.0 9.0 0.00 0.00 0.00 51 1015.6
20260506153625 41 344 2.0 9.0 0.00 0.00 0.00 54 1015.5
20260506153120 41 324 1.0 6.0 0.00 0.00 0.00 52 1015.5
20260506152619 41 319 1.0 6.0 0.00 0.00 0.00 53 1015.5
20260506152119 41 317 1.0 7.0 0.00 0.00 0.00 53 1015.4
20260506151618 41 340 2.0 7.0 0.00 0.00 0.00 52 1015.5
20260506151118 41 273 3.0 7.0 0.00 0.00 0.00 52 1015.5
20260506150618 41 324 3.0 9.0 0.00 0.00 0.00 51 1015.6
20260506150132 41 296 3.0 9.0 0.00 0.00 0.00 51 1015.5
20260506145617 41 242 4.0 10.0 0.00 0.00 0.00 51 1015.5
20260506145340 41 281 3.0 10.0 0.00 0.00 0.00 51 1015.6
20260506144617 41 297 2.0 6.0 0.00 0.00 0.00 52 1015.6
20260506144117 41 317 2.0 9.0 0.00 0.00 0.00 52 1015.6
20260506143846 41 297 3.0 9.0 0.00 0.00 0.00 51 1015.6
20260506143337 41 251 2.0 7.0 0.00 0.00 0.00 52 1015.6
20260506142618 41 299 2.0 6.0 0.00 0.00 0.00 52 1015.6
20260506142118 41 292 2.0 7.0 0.00 0.00 0.00 52 1015.5
20260506141617 41 314 2.0 7.0 0.00 0.00 0.00 52 1015.5
20260506141118 40 281 2.0 7.0 0.00 0.00 0.00 54 1015.5
20260506140618 40 312 2.0 7.0 0.00 0.00 0.00 53 1015.6
20260506140118 41 312 2.0 6.0 0.00 0.00 0.00 54 1015.5
20260506135617 41 304 2.0 10.0 0.00 0.00 0.00 54 1015.4
20260506135117 40 272 3.0 10.0 0.00 0.00 0.00 53 1015.4
20260506134619 41 296 2.0 6.0 0.00 0.00 0.00 55 1015.4
20260506134117 41 307 2.0 6.0 0.00 0.00 0.00 55 1015.4
20260506133618 40 311 2.0 5.0 0.00 0.00 0.00 55 1015.2
20260506133118 40 290 2.0 7.0 0.00 0.00 0.00 56 1015.3
20260506132617 40 259 3.0 7.0 0.00 0.00 0.00 57 1015.2
20260506132118 40 320 2.0 6.0 0.00 0.00 0.00 58 1015.2
20260506131618 39 278 2.0 4.0 0.00 0.00 0.00 58 1015.1
20260506131117 39 287 1.0 4.0 0.00 0.00 0.00 59 1015.0
20260506130618 38 304 1.0 6.0 0.00 0.00 0.00 62 1015.0
20260506130119 37 312 1.0 6.0 0.00 0.00 0.00 62 1015.0
20260506125616 37 348 1.0 6.0 0.00 0.00 0.00 62 1014.9
20260506125343 37 299 1.0 9.0 0.00 0.00 0.00 63 1014.8
20260506124614 36 340 1.0 9.0 0.00 0.00 0.00 63 1014.7
20260506124114 36 304 2.0 5.0 0.00 0.00 0.00 64 1014.7
20260506123614 36 326 1.0 5.0 0.00 0.00 0.00 64 1014.7
20260506123552 36 355 1.0 4.0 0.00 0.00 0.00 65 1014.6
20260506122612 35 329 1.0 4.0 0.00 0.00 0.00 66 1014.7
20260506122109 35 355 0.0 3.0 0.00 0.00 0.00 67 1014.6
20260506121612 35 355 1.0 5.0 0.00 0.00 0.00 68 1014.5
20260506121108 34 336 1.0 5.0 0.00 0.00 0.00 68 1014.4
20260506120608 34 333 1.0 4.0 0.00 0.00 0.00 70 1014.3
20260506120324 33 269 0.0 1.0 0.00 0.00 0.00 70 1014.2
20260506115607 33 269 0.0 0.0 0.00 0.00 0.00 70 1014.2
20260506115104 33 269 0.0 1.0 0.00 0.00 0.00 70 1014.2
20260506114602 33 269 0.0 1.0 0.00 0.00 0.00 70 1014.1
20260506114101 33 268 0.0 2.0 0.00 0.00 0.00 70 1014.0
20260506113600 33 267 0.0 2.0 0.00 0.00 0.00 70 1014.0
20260506113101 33 267 0.0 1.0 0.00 0.00 0.00 69 1013.9
20260506112825 33 263 0.0 1.0 0.00 0.00 0.00 69 1013.9
20260506112059 33 262 0.0 1.0 0.00 0.00 0.00 69 1013.9
20260506111557 33 261 0.0 1.0 0.00 0.00 0.00 69 1013.9
20260506111056 33 261 0.0 1.0 0.00 0.00 0.00 68 1014.0
20260506110555 33 261 0.0 2.0 0.00 0.00 0.00 68 1014.1
20260506110052 33 260 0.0 2.0 0.00 0.00 0.00 68 1014.1
20260506105550 33 273 0.0 2.0 0.00 0.00 0.00 67 1014.1
20260506105051 33 273 0.0 2.0 0.00 0.00 0.00 67 1014.1
20260506104550 34 306 0.0 1.0 0.00 0.00 0.00 67 1014.0
20260506104049 34 306 0.0 1.0 0.00 0.00 0.00 66 1014.0
20260506103549 34 306 0.0 1.0 0.00 0.00 0.00 66 1013.9
20260506103047 34 309 0.0 1.0 0.00 0.00 0.00 66 1013.7
20260506102546 34 310 0.0 0.0 0.00 0.00 0.00 66 1013.5
20260506102043 34 310 0.0 5.0 0.00 0.00 0.00 66 1013.4
20260506101544 34 310 0.0 5.0 0.00 0.00 0.00 66 1013.4
20260506101040 34 297 0.0 1.0 0.00 0.00 0.00 66 1013.4
20260506100801 34 296 0.0 1.0 0.00 0.00 0.00 66 1013.4
20260506100039 34 296 1.0 7.0 0.00 0.00 0.00 66 1013.5
20260506095758 34 296 1.0 7.0 0.00 0.00 0.00 66 1013.5
20260506095039 34 309 1.0 6.0 0.00 0.00 0.00 66 1013.4
20260506094807 34 304 1.0 6.0 0.00 0.00 0.00 67 1013.4
20260506094038 34 311 0.0 3.0 0.00 0.00 0.00 67 1013.5
20260506093537 34 318 0.0 2.0 0.00 0.00 0.00 68 1013.4
20260506093037 33 307 1.0 3.0 0.00 0.00 0.00 68 1013.5
20260506092537 33 297 0.0 3.0 0.00 0.00 0.00 69 1013.5
20260506092038 33 344 0.0 0.0 0.00 0.00 0.00 68 1013.6
20260506091800 33 344 0.0 0.0 0.00 0.00 0.00 68 1013.6
20260506091034 33 344 0.0 0.0 0.00 0.00 0.00 67 1013.5
20260506090533 33 344 0.0 0.0 0.00 0.00 0.00 67 1013.5
20260506090032 33 344 0.0 1.0 0.00 0.00 0.00 67 1013.4
20260506085530 33 344 0.0 3.0 0.00 0.00 0.00 67 1013.4
20260506085249 33 347 0.0 3.0 0.00 0.00 0.00 67 1013.2
20260506084530 33 342 0.0 1.0 0.00 0.00 0.00 67 1013.1
20260506084027 33 342 0.0 1.0 0.00 0.00 0.00 67 1013.1
20260506083527 33 342 0.0 0.0 0.00 0.00 0.00 66 1013.1
20260506083027 34 342 0.0 1.0 0.00 0.00 0.00 66 1013.2
20260506082528 34 342 0.0 1.0 0.00 0.00 0.00 65 1013.2
20260506082027 34 342 0.0 0.0 0.00 0.00 0.00 65 1013.2
20260506081527 34 342 0.0 0.0 0.00 0.00 0.00 64 1013.3
20260506081028 35 342 0.0 0.0 0.00 0.00 0.00 63 1013.3
20260506080748 35 342 0.0 0.0 0.00 0.00 0.00 63 1013.2
20260506073526 36 344 0.0 4.0 0.00 0.00 0.00 61 1012.9
20260506073024 36 325 1.0 4.0 0.00 0.00 0.00 61 1012.9
20260506072526 36 329 1.0 4.0 0.00 0.00 0.00 60 1012.9
20260506072025 36 335 0.0 4.0 0.00 0.00 0.00 60 1012.8
20260506071523 36 355 0.0 3.0 0.00 0.00 0.00 60 1012.9
20260506071025 36 327 1.0 5.0 0.00 0.00 0.00 60 1012.9
20260506070524 36 329 1.0 5.0 0.00 0.00 0.00 59 1013.0
20260506062502 37 305 1.0 3.0 0.00 0.00 0.00 58 1012.9
20260506062220 37 323 1.0 4.0 0.00 0.00 0.00 58 1012.9
20260506061516 37 331 1.0 4.0 0.00 0.00 0.00 57 1012.9
20260506061005 38 355 0.0 3.0 0.00 0.00 0.00 57 1012.9
20260506060504 38 340 0.0 3.0 0.00 0.00 0.00 57 1013.0
20260506050955 39 344 1.0 7.0 0.00 0.00 0.00 54 1012.4
20260506050455 39 313 1.0 5.0 0.00 0.00 0.00 54 1012.3
20260506044955 40 327 1.0 7.0 0.00 0.00 0.00 53 1012.2
20260506044454 40 316 2.0 7.0 0.00 0.00 0.00 53 1012.2
20260506044225 40 315 1.0 5.0 0.00 0.00 0.00 53 1012.2
20260506043456 40 302 1.0 8.0 0.00 0.00 0.00 52 1012.2
20260506042954 40 319 2.0 8.0 0.00 0.00 0.00 52 1012.1
20260506042455 40 292 2.0 7.0 0.00 0.00 0.00 52 1012.1
20260506041955 40 319 1.0 11.0 0.00 0.00 0.00 53 1012.1
20260506041454 40 346 1.0 11.0 0.00 0.00 0.00 52 1012.2
20260506040955 41 325 0.0 4.0 0.00 0.00 0.00 52 1012.1
20260506040454 41 330 1.0 7.0 0.00 0.00 0.00 52 1012.1
20260506035954 41 309 2.0 9.0 0.00 0.00 0.00 51 1012.1
20260506035456 41 329 2.0 9.0 0.00 0.00 0.00 51 1012.1
20260506034951 41 315 1.0 8.0 0.00 0.00 0.00 52 1012.0
20260506034451 41 331 1.0 7.0 0.00 0.00 0.00 52 1012.0
20260506033951 41 342 1.0 6.0 0.00 0.00 0.00 52 1012.0
20260506033450 42 339 1.0 6.0 0.00 0.00 0.00 52 1011.9
20260506033210 42 317 1.0 7.0 0.00 0.00 0.00 51 1011.9
20260506032451 42 331 2.0 7.0 0.00 0.00 0.00 51 1011.9
20260506031951 42 355 2.0 7.0 0.00 0.00 0.00 51 1011.9
20260506031451 42 307 3.0 7.0 0.00 0.00 0.00 50 1011.9
20260506030953 42 335 2.0 8.0 0.00 0.00 0.00 50 1011.8
20260506030448 43 319 3.0 10.0 0.00 0.00 0.00 50 1011.9
20260506025949 43 313 4.0 10.0 0.00 0.00 0.00 50 1011.8
20260506025450 43 317 3.0 10.0 0.00 0.00 0.00 50 1011.7